Location: Dos Palmas
(32.4468°N, 116.8732°W)
Time: 03:49:02
(UTC+00:00)

Cosmos 1470 - Pass Details

Date: 20 June 2021
Orbit: 519 x 542 km, 82.5° (Epoch: 29 July)

Event Time Altitude Azimuth Distance (km) Brightness Sun altitude
Rises 03:38:29 0° 4° (N) 2,699 6.8 -8.2°
Reaches altitude 10° 03:40:49 10° 14° (NNE) 1,800 5.7 -8.6°
Maximum altitude 03:44:25 33° 80° (E) 907 3.6 -9.2°
Enters shadow 03:47:37 12° 143° (SE) 1,643 4.6 -9.8°
